Retour au catalogue

PICOSAT 3

ActifScienceLEO
NORAD 26091·PAYLOAD·🇺🇸 United States

Lancé Jan 27, 2000 depuis Vandenberg Space Force Base

Loading…

Prochains Passages (prochaines 24 heures)

TLE

FraisSource: Space-Track

Époque: Sep 13, 2026, 21:48 UTC

1 26091U 00004J   26256.90867316  .00001358  00000-0  29430-3 0  9991
2 26091 100.1919  29.7731 0024467  55.4158 304.9339 14.60241688403379

Suivez PICOSAT 3 en temps réel avec AllMySat

Download on the App Store